Home > Weather > Xuzhou > Past weeks

Flag for China Weather for the Past 2 Weeks in Xuzhou, Jiangsu, China

Now
55 °F

Fog.


Feels Like: 54 °F
Forecast: 33 / 55 °F
Wind: 6 mph from East

Location: Hefei Airport

Current Time: Feb 12, 2016 at 9:28:01 AM

Latest Report: Feb 12, 2016 at 8:00 AM


Visibility: 2 mi

Pressure: 29.86 "Hg

Humidity: 94%

Dew point: 54 °F

Location of XuzhouLocation

Historic Weather in Xuzhou — Graph

°F

Xuzhou Temperature Yesterday

Maximum temperature yesterday: 64 °F (at 2:00 PM)
Minimum temperature yesterday: 52 °F (at 4:00 AM)
Average temperature yesterday: 57 °F

High & Low Weather Summary for the Past Weeks

 TemperatureHumidityPressure
High75 °F (Feb 10, 2:00 PM)100% (Jan 28, 9:00 AM)30.69 "Hg (Jan 28, 9:00 AM)
Low21 °F (Feb 1, 7:00 AM)20% (Feb 8, 2:00 PM)29.83 "Hg (Feb 11, 2:00 PM)
Average41 °F67%30.30 "Hg
* Reported Jan 28 8:00 AM — Feb 12 8:00 AM, Xuzhou, Weather by CustomWeather, © 2016

Note: Actual official high and low records may vary slightly from our data, if they occured in-between our weather recording intervals... More about our weather records

Advertising

Xuzhou Weather History for the Previous 24 Hours

 ConditionsComfort  
Time TempWeatherWind HumidityBarometerVisibility
8:00 AM
Fri, Feb 12
55 °FFog.6 mph94%29.86 "Hg1 mi
7:00 AM54 °FFog.6 mph94%29.86 "Hg2 mi
6:00 AM52 °FFog.3 mph100%29.86 "Hg2 mi
5:00 AM52 °FFog.3 mph94%29.86 "Hg1 mi
4:00 AM54 °FFog.3 mph94%29.86 "Hg1 mi
3:00 AM55 °FFog.3 mph94%29.89 "Hg2 mi
2:00 AM55 °FFog.6 mph94%29.89 "Hg2 mi
1:00 AM55 °FFog.6 mph94%29.89 "Hg2 mi
12:00 AM55 °FFog.6 mph94%29.92 "Hg2 mi
11:00 PM
Thu, Feb 11
57 °FFog.6 mph88%29.92 "Hg2 mi
10:00 PM55 °FFog.3 mph94%29.92 "Hg2 mi
9:00 PM55 °FFog.3 mph94%29.92 "Hg3 mi
8:00 PM54 °FClear.6 mph94%29.89 "Hg4 mi
7:00 PM57 °FClear.3 mph88%29.89 "Hg4 mi
6:00 PM61 °FClear.3 mph77%29.86 "Hg6 mi
5:00 PM64 °FSunny.3 mph68%29.86 "Hg10 mi
4:00 PM64 °FSunny.3 mph68%29.83 "Hg10 mi
3:00 PM64 °FPassing clouds.6 mph68%29.83 "HgN/A
2:00 PM64 °FSunny.8 mph68%29.83 "Hg10 mi
1:00 PM63 °FSunny.10 mph73%29.86 "Hg10 mi
12:00 PM59 °FClear.6 mph88%29.89 "Hg4 mi
11:00 AM55 °FFog.6 mph94%29.92 "Hg2 mi
10:00 AM54 °FLight rain. Fog.3 mph94%29.92 "Hg1 mi
9:00 AM52 °FLight rain. Fog.1 mph100%29.92 "Hg1 mi
Weather by CustomWeather, © 2016

See weather overviewHow to use our weather pages